Location: Arpaise
(41.0333°N, 14.7333°E)
Time: 01:39:40
(UTC+00:00)

Cosmos 1825 - Pass Details

Date: 05 July 2020
Orbit: 502 x 509 km, 82.5° (Epoch: 11 August)

Event Time Altitude Azimuth Distance (km) Brightness Sun altitude
Exits shadow 21:58:07 50° 29° (NNE) 658 2.9 -24.4°
Drops below altitude 10° 22:01:02 10° 12° (NNE) 1,734 5.7 -24.5°
Sets 22:03:11 0° 10° (N) 2,625 6.8 -24.7°
